Time,TemperatureF,DewpointF,PressureIn,WindDirection,WindDirectionDegrees,WindSpeedMPH,WindSpeedGustMPH,Humidity,HourlyPrecipIn,Conditions,Clouds,dailyrainin,SoftwareType,DateUTC
2013-07-15 00:01:00,72.9,52.0,29.23,East,91,0.0,0.0,48,0.00,,,0.00,VWS V13.01,2013-07-15 05:01:00,
2013-07-15 00:06:00,72.9,52.0,29.23,East,94,0.0,0.0,48,0.00,,,0.00,VWS V13.01,2013-07-15 05:06:00,
2013-07-15 00:11:00,72.7,51.9,29.23,East,94,0.0,0.0,48,0.00,,,0.00,VWS V13.01,2013-07-15 05:11:00,
2013-07-15 00:16:00,72.9,52.0,29.23,ESE,108,0.0,0.0,48,0.00,,,0.00,VWS V13.01,2013-07-15 05:16:00,
2013-07-15 00:21:00,72.9,52.0,29.23,East,100,0.0,0.0,48,0.00,,,0.00,VWS V13.01,2013-07-15 05:21:00,
2013-07-15 00:26:00,72.7,51.9,29.23,East,100,0.0,0.0,48,0.00,,,0.00,VWS V13.01,2013-07-15 05:26:00,
2013-07-15 00:31:00,72.7,52.4,29.23,ESE,108,0.0,0.0,49,0.00,,,0.00,VWS V13.01,2013-07-15 05:31:00,
2013-07-15 00:36:00,72.5,52.3,29.23,East,98,0.0,0.0,49,0.00,,,0.00,VWS V13.01,2013-07-15 05:36:00,
2013-07-15 00:41:00,72.3,52.1,29.23,ESE,102,0.0,0.0,49,0.00,,,0.00,VWS V13.01,2013-07-15 05:41:00,
2013-07-15 00:46:00,72.1,52.5,29.23,East,101,0.0,0.0,50,0.00,,,0.00,VWS V13.01,2013-07-15 05:46:00,
2013-07-15 00:51:00,72.0,52.3,29.23,East,99,0.0,0.0,50,0.00,,,0.00,VWS V13.01,2013-07-15 05:51:00,
2013-07-15 00:56:00,72.0,52.9,29.23,East,92,0.0,0.0,51,0.00,,,0.00,VWS V13.01,2013-07-15 05:56:00,
2013-07-15 01:01:00,71.8,52.7,29.23,ESE,103,0.0,0.0,51,0.00,,,0.00,VWS V13.01,2013-07-15 06:01:00,
2013-07-15 01:06:00,71.8,53.2,29.23,East,96,0.0,0.0,52,0.00,,,0.00,VWS V13.01,2013-07-15 06:06:00,
2013-07-15 01:11:00,71.8,53.2,29.23,East,84,0.0,0.0,52,0.00,,,0.00,VWS V13.01,2013-07-15 06:11:00,
2013-07-15 01:16:00,71.6,53.1,29.23,East,84,0.0,0.0,52,0.00,,,0.00,VWS V13.01,2013-07-15 06:16:00,
2013-07-15 01:21:00,71.4,53.4,29.23,East,84,0.0,0.0,53,0.00,,,0.00,VWS V13.01,2013-07-15 06:21:00,
2013-07-15 01:26:00,71.2,53.2,29.23,East,84,0.0,0.0,53,0.00,,,0.00,VWS V13.01,2013-07-15 06:26:00,
2013-07-15 01:31:00,71.2,53.8,29.23,East,84,0.0,0.0,54,0.00,,,0.00,VWS V13.01,2013-07-15 06:31:00,
2013-07-15 01:36:00,71.2,54.3,29.23,East,84,0.0,0.0,55,0.00,,,0.00,VWS V13.01,2013-07-15 06:36:00,
2013-07-15 01:41:00,71.2,54.3,29.23,East,84,0.0,0.0,55,0.00,,,0.00,VWS V13.01,2013-07-15 06:41:00,
2013-07-15 01:46:00,71.2,54.8,29.23,East,99,0.0,0.0,56,0.00,,,0.00,VWS V13.01,2013-07-15 06:46:00,
2013-07-15 01:51:00,71.2,55.2,29.23,ESE,104,0.0,0.0,57,0.00,,,0.00,VWS V13.01,2013-07-15 06:51:00,
2013-07-15 01:56:00,71.4,55.4,29.23,East,98,0.0,0.0,57,0.00,,,0.00,VWS V13.01,2013-07-15 06:56:00,
2013-07-15 02:01:00,71.4,55.4,29.23,East,92,0.0,0.0,57,0.00,,,0.00,VWS V13.01,2013-07-15 07:01:00,
2013-07-15 02:06:00,71.4,55.4,29.23,East,89,0.0,0.0,57,0.00,,,0.00,VWS V13.01,2013-07-15 07:06:00,
2013-07-15 02:11:00,71.4,54.9,29.23,East,89,0.0,0.0,56,0.00,,,0.00,VWS V13.01,2013-07-15 07:11:00,
2013-07-15 02:16:00,71.2,54.8,29.23,East,89,0.0,0.0,56,0.00,,,0.00,VWS V13.01,2013-07-15 07:16:00,
2013-07-15 02:21:00,71.2,54.8,29.23,East,89,0.0,0.0,56,0.00,,,0.00,VWS V13.01,2013-07-15 07:21:00,
2013-07-15 02:26:00,70.9,54.4,29.23,East,89,0.0,0.0,56,0.00,,,0.00,VWS V13.01,2013-07-15 07:26:00,
2013-07-15 02:31:00,70.5,54.1,29.23,East,89,0.0,0.0,56,0.00,,,0.00,VWS V13.01,2013-07-15 07:31:00,
2013-07-15 02:36:00,70.2,53.8,29.23,East,89,0.0,0.0,56,0.00,,,0.00,VWS V13.01,2013-07-15 07:36:00,
2013-07-15 02:41:00,69.6,53.7,29.23,East,89,0.0,0.0,57,0.00,,,0.00,VWS V13.01,2013-07-15 07:41:00,
2013-07-15 02:46:00,69.4,53.6,29.23,East,89,0.0,0.0,57,0.00,,,0.00,VWS V13.01,2013-07-15 07:46:00,
2013-07-15 02:51:00,69.1,53.7,29.23,East,89,0.0,0.0,58,0.00,,,0.00,VWS V13.01,2013-07-15 07:51:00,
2013-07-15 02:56:00,68.9,54.0,29.23,East,89,0.0,0.0,59,0.00,,,0.00,VWS V13.01,2013-07-15 07:56:00,
2013-07-15 03:01:00,68.7,53.8,29.23,East,89,0.0,0.0,59,0.00,,,0.00,VWS V13.01,2013-07-15 08:01:00,
2013-07-15 03:06:00,68.5,54.1,29.23,East,89,0.0,0.0,60,0.00,,,0.00,VWS V13.01,2013-07-15 08:06:00,
2013-07-15 03:11:00,68.5,54.6,29.23,East,89,0.0,0.0,61,0.00,,,0.00,VWS V13.01,2013-07-15 08:11:00,
2013-07-15 03:16:00,68.4,54.8,29.23,East,89,0.0,0.0,62,0.00,,,0.00,VWS V13.01,2013-07-15 08:16:00,
2013-07-15 03:21:00,68.2,54.7,29.23,East,89,0.0,0.0,62,0.00,,,0.00,VWS V13.01,2013-07-15 08:21:00,
2013-07-15 03:26:00,68.2,55.1,29.23,East,89,0.0,0.0,63,0.00,,,0.00,VWS V13.01,2013-07-15 08:26:00,
2013-07-15 03:31:00,68.2,55.1,29.23,ENE,77,0.0,0.0,63,0.00,,,0.00,VWS V13.01,2013-07-15 08:31:00,
2013-07-15 03:36:00,68.2,55.5,29.23,ENE,77,0.0,0.0,64,0.00,,,0.00,VWS V13.01,2013-07-15 08:36:00,
2013-07-15 03:41:00,68.4,55.7,29.23,ENE,77,0.0,0.0,64,0.00,,,0.00,VWS V13.01,2013-07-15 08:41:00,
2013-07-15 03:46:00,68.4,55.7,29.23,East,93,0.0,0.0,64,0.00,,,0.00,VWS V13.01,2013-07-15 08:46:00,
2013-07-15 03:51:00,68.4,56.2,29.23,East,93,0.0,0.0,65,0.00,,,0.00,VWS V13.01,2013-07-15 08:51:00,
2013-07-15 03:56:00,68.5,56.3,29.23,East,93,0.0,0.0,65,0.00,,,0.00,VWS V13.01,2013-07-15 08:56:00,
2013-07-15 04:01:00,68.5,56.3,29.23,East,93,0.0,0.0,65,0.00,,,0.00,VWS V13.01,2013-07-15 09:01:00,
2013-07-15 04:06:00,68.5,56.7,29.23,East,90,0.0,0.0,66,0.00,,,0.00,VWS V13.01,2013-07-15 09:06:00,
2013-07-15 04:11:00,68.5,56.7,29.23,East,90,0.0,0.0,66,0.00,,,0.00,VWS V13.01,2013-07-15 09:11:00,
2013-07-15 04:16:00,68.4,56.2,29.23,East,90,0.0,0.0,65,0.00,,,0.00,VWS V13.01,2013-07-15 09:16:00,
2013-07-15 04:21:00,68.2,56.0,29.23,East,90,0.0,0.0,65,0.00,,,0.00,VWS V13.01,2013-07-15 09:21:00,
2013-07-15 04:26:00,67.8,56.1,29.23,East,90,0.0,0.0,66,0.00,,,0.00,VWS V13.01,2013-07-15 09:26:00,
2013-07-15 04:31:00,67.6,55.9,29.23,East,90,0.0,0.0,66,0.00,,,0.00,VWS V13.01,2013-07-15 09:31:00,
2013-07-15 04:36:00,67.3,55.5,29.23,East,90,0.0,0.0,66,0.00,,,0.00,VWS V13.01,2013-07-15 09:36:00,
2013-07-15 04:41:00,67.1,55.8,29.23,East,90,0.0,0.0,67,0.00,,,0.00,VWS V13.01,2013-07-15 09:41:00,
2013-07-15 04:46:00,67.1,55.8,29.23,East,90,0.0,0.0,67,0.00,,,0.00,VWS V13.01,2013-07-15 09:46:00,
2013-07-15 04:51:00,66.9,55.6,29.23,East,90,0.0,0.0,67,0.00,,,0.00,VWS V13.01,2013-07-15 09:51:00,
2013-07-15 04:56:00,66.9,56.0,29.23,East,90,0.0,0.0,68,0.00,,,0.00,VWS V13.01,2013-07-15 09:56:00,
2013-07-15 05:01:00,66.9,56.0,29.23,East,90,0.0,0.0,68,0.00,,,0.00,VWS V13.01,2013-07-15 10:01:00,
2013-07-15 05:06:00,66.7,56.3,29.23,East,90,0.0,0.0,69,0.00,,,0.00,VWS V13.01,2013-07-15 10:06:00,
2013-07-15 05:11:00,66.7,56.3,29.23,East,90,0.0,0.0,69,0.00,,,0.00,VWS V13.01,2013-07-15 10:11:00,
2013-07-15 05:16:00,66.7,56.3,29.23,East,90,0.0,0.0,69,0.00,,,0.00,VWS V13.01,2013-07-15 10:16:00,
2013-07-15 05:21:00,66.7,56.7,29.23,East,90,0.0,0.0,70,0.00,,,0.00,VWS V13.01,2013-07-15 10:21:00,
2013-07-15 05:27:00,66.7,56.7,29.23,East,90,0.0,0.0,70,0.00,,,0.00,VWS V13.01,2013-07-15 10:27:00,
2013-07-15 05:32:00,66.6,56.5,29.23,East,90,0.0,0.0,70,0.00,,,0.00,VWS V13.01,2013-07-15 10:32:00,
2013-07-15 05:37:00,66.4,56.3,29.23,East,90,0.0,0.0,70,0.00,,,0.00,VWS V13.01,2013-07-15 10:37:00,
2013-07-15 05:42:00,66.4,56.7,29.23,East,90,0.0,0.0,71,0.00,,,0.00,VWS V13.01,2013-07-15 10:42:00,
2013-07-15 05:47:00,66.2,56.5,29.23,East,90,0.0,0.0,71,0.00,,,0.00,VWS V13.01,2013-07-15 10:47:00,
2013-07-15 05:52:00,66.2,56.5,29.23,East,90,0.0,0.0,71,0.00,,,0.00,VWS V13.01,2013-07-15 10:52:00,
2013-07-15 05:57:00,66.2,56.9,29.23,East,87,0.0,0.0,72,0.00,,,0.00,VWS V13.01,2013-07-15 10:57:00,
2013-07-15 06:02:00,66.2,56.9,29.23,East,87,0.0,0.0,72,0.00,,,0.00,VWS V13.01,2013-07-15 11:02:00,
2013-07-15 06:07:00,66.4,57.1,29.23,East,99,0.0,0.0,72,0.00,,,0.00,VWS V13.01,2013-07-15 11:07:00,
2013-07-15 06:12:00,66.4,57.5,29.23,ENE,71,0.0,0.0,73,0.00,,,0.00,VWS V13.01,2013-07-15 11:12:00,
2013-07-15 06:17:00,66.6,57.7,29.23,East,85,0.0,0.0,73,0.00,,,0.00,VWS V13.01,2013-07-15 11:17:00,
2013-07-15 06:22:00,66.7,58.2,29.23,East,101,0.0,0.0,74,0.00,,,0.00,VWS V13.01,2013-07-15 11:22:00,
2013-07-15 06:27:00,67.1,58.5,29.23,NE,45,0.0,0.0,74,0.00,,,0.00,VWS V13.01,2013-07-15 11:27:00,
2013-07-15 06:32:00,67.1,58.5,29.23,NE,45,0.0,0.0,74,0.00,,,0.00,VWS V13.01,2013-07-15 11:32:00,
2013-07-15 06:37:00,67.3,58.7,29.23,NE,45,0.0,0.0,74,0.00,,,0.00,VWS V13.01,2013-07-15 11:37:00,
2013-07-15 06:42:00,67.3,58.7,29.23,North,350,0.0,0.0,74,0.00,,,0.00,VWS V13.01,2013-07-15 11:42:00,
2013-07-15 06:47:00,67.6,59.4,29.23,ESE,112,0.0,0.0,75,0.00,,,0.00,VWS V13.01,2013-07-15 11:47:00,
2013-07-15 06:52:00,68.0,60.2,29.23,ESE,105,0.0,0.0,76,0.00,,,0.00,VWS V13.01,2013-07-15 11:52:00,
2013-07-15 06:57:00,68.5,60.7,29.23,East,101,2.7,3.6,76,0.00,,,0.00,VWS V13.01,2013-07-15 11:57:00,
2013-07-15 07:02:00,68.9,59.5,29.23,ESE,107,3.1,3.1,72,0.00,,,0.00,VWS V13.01,2013-07-15 12:02:00,
2013-07-15 07:07:00,69.3,58.7,29.23,East,91,2.7,2.7,69,0.00,,,0.00,VWS V13.01,2013-07-15 12:07:00,
2013-07-15 07:12:00,69.4,57.6,29.23,ESE,121,0.0,2.7,66,0.00,,,0.00,VWS V13.01,2013-07-15 12:12:00,
2013-07-15 07:17:00,69.6,57.3,29.23,ESE,117,2.7,4.0,65,0.00,,,0.00,VWS V13.01,2013-07-15 12:17:00,
2013-07-15 07:22:00,70.0,57.3,29.23,ESE,120,2.2,4.0,64,0.00,,,0.00,VWS V13.01,2013-07-15 12:22:00,
2013-07-15 07:27:00,70.3,57.2,29.26,ESE,112,2.7,3.6,63,0.00,,,0.00,VWS V13.01,2013-07-15 12:27:00,
2013-07-15 07:32:00,70.7,57.1,29.26,SE,137,0.0,3.1,62,0.00,,,0.00,VWS V13.01,2013-07-15 12:32:00,
2013-07-15 07:37:00,70.9,56.8,29.26,ESE,105,2.7,3.1,61,0.00,,,0.00,VWS V13.01,2013-07-15 12:37:00,
2013-07-15 07:42:00,71.2,57.1,29.26,SE,138,2.7,2.7,61,0.00,,,0.00,VWS V13.01,2013-07-15 12:42:00,
2013-07-15 07:47:00,71.4,55.9,29.26,SSE,166,4.0,4.0,58,0.00,,,0.00,VWS V13.01,2013-07-15 12:47:00,
2013-07-15 07:52:00,71.8,55.3,29.26,SE,144,5.4,5.4,56,0.00,,,0.00,VWS V13.01,2013-07-15 12:52:00,
2013-07-15 07:57:00,72.1,54.1,29.26,SE,137,3.1,3.1,53,0.00,,,0.00,VWS V13.01,2013-07-15 12:57:00,
2013-07-15 08:02:00,72.5,54.4,29.26,SE,143,3.6,3.6,53,0.00,,,0.00,VWS V13.01,2013-07-15 13:02:00,
2013-07-15 08:07:00,72.7,54.1,29.26,SE,137,2.2,4.0,52,0.00,,,0.00,VWS V13.01,2013-07-15 13:07:00,
2013-07-15 08:12:00,73.0,53.9,29.26,South,169,3.1,4.9,51,0.00,,,0.00,VWS V13.01,2013-07-15 13:12:00,
2013-07-15 08:17:00,73.2,52.4,29.26,SSE,156,4.9,5.4,48,0.00,,,0.00,VWS V13.01,2013-07-15 13:17:00,
2013-07-15 08:22:00,73.8,52.9,29.26,SE,132,2.2,4.9,48,0.00,,,0.00,VWS V13.01,2013-07-15 13:22:00,
2013-07-15 08:27:00,74.3,52.8,29.23,SE,127,2.7,3.6,47,0.00,,,0.00,VWS V13.01,2013-07-15 13:27:00,
2013-07-15 08:32:00,74.8,50.9,29.23,SSE,164,4.0,4.0,43,0.00,,,0.00,VWS V13.01,2013-07-15 13:32:00,
2013-07-15 08:37:00,75.6,51.5,29.23,SSE,153,2.7,4.9,43,0.00,,,0.00,VWS V13.01,2013-07-15 13:37:00,
2013-07-15 08:42:00,75.9,49.9,29.26,SE,141,3.6,5.4,40,0.00,,,0.00,VWS V13.01,2013-07-15 13:42:00,
2013-07-15 08:47:00,76.3,50.2,29.26,SSE,157,2.7,5.4,40,0.00,,,0.00,VWS V13.01,2013-07-15 13:47:00,
2013-07-15 08:52:00,76.8,51.4,29.26,South,171,5.8,5.8,41,0.00,,,0.00,VWS V13.01,2013-07-15 13:52:00,
2013-07-15 08:57:00,77.0,48.8,29.26,SE,131,4.0,5.8,37,0.00,,,0.00,VWS V13.01,2013-07-15 13:57:00,
2013-07-15 09:02:00,77.2,48.9,29.26,SE,130,2.7,5.4,37,0.00,,,0.00,VWS V13.01,2013-07-15 14:02:00,
2013-07-15 09:07:00,77.4,48.3,29.26,SSE,164,4.5,5.8,36,0.00,,,0.00,VWS V13.01,2013-07-15 14:07:00,
2013-07-15 09:12:00,77.7,48.7,29.26,SE,137,5.8,5.8,36,0.00,,,0.00,VWS V13.01,2013-07-15 14:12:00,
2013-07-15 09:17:00,78.1,48.2,29.26,South,172,4.0,5.8,35,0.00,,,0.00,VWS V13.01,2013-07-15 14:17:00,
2013-07-15 09:22:00,78.1,48.2,29.26,South,170,0.0,2.7,35,0.00,,,0.00,VWS V13.01,2013-07-15 14:22:00,
2013-07-15 09:27:00,78.8,48.9,29.26,SE,135,5.4,5.4,35,0.00,,,0.00,VWS V13.01,2013-07-15 14:27:00,
2013-07-15 09:32:00,78.8,48.1,29.26,South,186,6.3,6.3,34,0.00,,,0.00,VWS V13.01,2013-07-15 14:32:00,
2013-07-15 09:37:00,79.0,48.2,29.26,SE,130,4.0,5.4,34,0.00,,,0.00,VWS V13.01,2013-07-15 14:37:00,
2013-07-15 09:42:00,79.2,47.6,29.26,SE,132,3.6,4.0,33,0.00,,,0.00,VWS V13.01,2013-07-15 14:42:00,
2013-07-15 09:47:00,79.3,47.8,29.26,SSE,149,5.4,5.4,33,0.00,,,0.00,VWS V13.01,2013-07-15 14:47:00,
2013-07-15 09:52:00,79.7,48.9,29.26,SSE,160,0.0,0.0,34,0.00,,,0.00,VWS V13.01,2013-07-15 14:52:00,
2013-07-15 09:57:00,80.1,47.6,29.26,SE,131,6.3,6.3,32,0.00,,,0.00,VWS V13.01,2013-07-15 14:57:00,
2013-07-15 10:03:00,80.2,46.9,29.26,SSE,166,4.0,4.9,31,0.00,,,0.00,VWS V13.01,2013-07-15 15:03:00,
2013-07-15 10:08:00,80.1,47.6,29.26,SSE,154,5.8,5.8,32,0.00,,,0.00,VWS V13.01,2013-07-15 15:08:00,
2013-07-15 10:13:00,80.2,46.9,29.26,South,169,5.8,6.7,31,0.00,,,0.00,VWS V13.01,2013-07-15 15:13:00,
2013-07-15 10:18:00,80.4,47.0,29.26,SE,143,3.1,4.0,31,0.00,,,0.00,VWS V13.01,2013-07-15 15:18:00,
2013-07-15 10:23:00,80.6,47.2,29.26,SE,135,4.9,5.4,31,0.00,,,0.00,VWS V13.01,2013-07-15 15:23:00,
2013-07-15 10:28:00,81.0,48.4,29.26,SSE,151,5.4,5.4,32,0.00,,,0.00,VWS V13.01,2013-07-15 15:28:00,
2013-07-15 10:33:00,81.3,47.8,29.26,SE,127,4.0,6.3,31,0.00,,,0.00,VWS V13.01,2013-07-15 15:33:00,
2013-07-15 10:38:00,81.7,47.3,29.29,SSW,193,2.7,8.7,30,0.00,,,0.00,VWS V13.01,2013-07-15 15:38:00,
2013-07-15 10:44:00,81.7,48.1,29.29,SSE,160,5.4,7.6,31,0.00,,,0.00,VWS V13.01,2013-07-15 15:44:00,
2013-07-15 10:49:00,81.9,47.4,29.29,SSE,160,3.1,6.3,30,0.00,,,0.00,VWS V13.01,2013-07-15 15:49:00,
2013-07-15 10:54:00,82.0,47.6,29.29,SE,130,3.6,6.3,30,0.00,,,0.00,VWS V13.01,2013-07-15 15:54:00,
2013-07-15 10:59:00,82.0,47.6,29.29,South,175,3.1,4.5,30,0.00,,,0.00,VWS V13.01,2013-07-15 15:59:00,
2013-07-15 11:04:00,82.2,47.7,29.29,SE,144,3.1,3.6,30,0.00,,,0.00,VWS V13.01,2013-07-15 16:04:00,
2013-07-15 11:09:00,82.8,48.2,29.29,SE,128,5.4,5.4,30,0.00,,,0.00,VWS V13.01,2013-07-15 16:09:00,
2013-07-15 11:14:00,83.1,48.5,29.29,SE,140,4.0,4.5,30,0.00,,,0.00,VWS V13.01,2013-07-15 16:14:00,
2013-07-15 11:19:00,83.1,47.6,29.29,ESE,118,4.0,4.0,29,0.00,,,0.00,VWS V13.01,2013-07-15 16:19:00,
2013-07-15 11:24:00,83.5,47.9,29.29,SSE,148,2.2,6.3,29,0.00,,,0.00,VWS V13.01,2013-07-15 16:24:00,
2013-07-15 11:29:00,83.3,46.8,29.29,South,172,3.6,5.4,28,0.00,,,0.00,VWS V13.01,2013-07-15 16:29:00,
2013-07-15 11:35:00,83.5,47.9,29.29,SSE,150,5.4,5.8,29,0.00,,,0.00,VWS V13.01,2013-07-15 16:35:00,
2013-07-15 11:40:00,83.8,48.2,29.29,SE,141,7.6,7.6,29,0.00,,,0.00,VWS V13.01,2013-07-15 16:40:00,
2013-07-15 11:46:00,83.8,48.2,29.29,South,182,10.1,10.1,29,0.00,,,0.00,VWS V13.01,2013-07-15 16:46:00,
2013-07-15 11:51:00,84.0,48.4,29.29,SSE,147,5.8,5.8,29,0.00,,,0.00,VWS V13.01,2013-07-15 16:51:00,
2013-07-15 11:56:00,84.0,48.4,29.29,ESE,111,8.1,8.3,29,0.00,,,0.00,VWS V13.01,2013-07-15 16:56:00,
2013-07-15 12:01:00,84.0,48.4,29.29,SSE,161,5.4,8.1,29,0.00,,,0.00,VWS V13.01,2013-07-15 17:01:00,
2013-07-15 12:07:00,84.2,48.5,29.29,SE,135,6.3,7.6,29,0.00,,,0.00,VWS V13.01,2013-07-15 17:07:00,
2013-07-15 12:12:00,84.6,48.8,29.29,SE,139,7.6,7.6,29,0.00,,,0.00,VWS V13.01,2013-07-15 17:12:00,
2013-07-15 12:18:00,84.4,46.8,29.29,SE,138,4.9,6.3,27,0.00,,,0.00,VWS V13.01,2013-07-15 17:18:00,
2013-07-15 12:23:00,84.7,49.0,29.29,ESE,110,7.2,8.1,29,0.00,,,0.00,VWS V13.01,2013-07-15 17:23:00,
2013-07-15 12:28:00,84.7,49.0,29.29,ESE,103,5.8,8.3,29,0.00,,,0.00,VWS V13.01,2013-07-15 17:28:00,
2013-07-15 12:33:00,84.6,47.9,29.29,SE,141,6.3,6.3,28,0.00,,,0.00,VWS V13.01,2013-07-15 17:33:00,
2013-07-15 12:38:00,84.7,49.0,29.29,ESE,118,5.4,8.3,29,0.00,,,0.00,VWS V13.01,2013-07-15 17:38:00,
2013-07-15 12:43:00,84.9,45.2,29.29,SSE,162,10.1,10.1,25,0.00,,,0.00,VWS V13.01,2013-07-15 17:43:00,
2013-07-15 12:48:00,85.1,47.4,29.29,SE,144,8.1,8.1,27,0.00,,,0.00,VWS V13.01,2013-07-15 17:48:00,
2013-07-15 12:53:00,85.5,45.7,29.29,SSE,157,5.4,8.1,25,0.00,,,0.00,VWS V13.01,2013-07-15 17:53:00,
2013-07-15 12:59:00,84.6,43.8,29.29,SSE,165,4.9,5.8,24,0.00,,,0.00,VWS V13.01,2013-07-15 17:59:00,
2013-07-15 13:04:00,84.4,47.8,29.29,ESE,123,5.4,8.1,28,0.00,,,0.00,VWS V13.01,2013-07-15 18:04:00,
2013-07-15 13:09:00,84.7,45.1,29.29,SE,126,8.3,8.3,25,0.00,,,0.00,VWS V13.01,2013-07-15 18:09:00,
2013-07-15 13:14:00,84.6,42.7,29.29,SE,139,8.3,8.3,23,0.00,,,0.00,VWS V13.01,2013-07-15 18:14:00,
2013-07-15 13:19:00,84.7,44.0,29.29,SE,139,9.6,9.6,24,0.00,,,0.00,VWS V13.01,2013-07-15 18:19:00,
2013-07-15 13:24:00,85.3,45.5,29.29,East,98,7.2,8.3,25,0.00,,,0.00,VWS V13.01,2013-07-15 18:24:00,
2013-07-15 13:29:00,85.6,43.6,29.29,South,184,8.3,8.3,23,0.00,,,0.00,VWS V13.01,2013-07-15 18:29:00,
2013-07-15 13:34:00,85.6,44.7,29.29,South,179,6.3,8.1,24,0.00,,,0.00,VWS V13.01,2013-07-15 18:34:00,
2013-07-15 13:39:00,84.9,46.2,29.29,ESE,117,4.9,5.4,26,0.00,,,0.00,VWS V13.01,2013-07-15 18:39:00,
2013-07-15 13:44:00,84.9,45.2,29.29,ESE,120,5.4,10.1,25,0.00,,,0.00,VWS V13.01,2013-07-15 18:44:00,
2013-07-15 13:50:00,84.2,44.6,29.29,SSE,158,7.6,7.6,25,0.00,,,0.00,VWS V13.01,2013-07-15 18:50:00,
2013-07-15 13:55:00,83.7,45.2,29.29,SE,146,9.6,9.6,26,0.00,,,0.00,VWS V13.01,2013-07-15 18:55:00,
2013-07-15 14:00:00,84.2,44.6,29.29,ESE,113,5.4,8.1,25,0.00,,,0.00,VWS V13.01,2013-07-15 19:00:00,
2013-07-15 14:05:00,85.1,46.4,29.29,East,89,7.6,7.6,26,0.00,,,0.00,VWS V13.01,2013-07-15 19:05:00,
2013-07-15 14:10:00,85.3,44.4,29.29,SSE,159,5.8,8.3,24,0.00,,,0.00,VWS V13.01,2013-07-15 19:10:00,
2013-07-15 14:15:00,85.6,48.8,29.29,ESE,111,5.8,5.8,28,0.00,,,0.00,VWS V13.01,2013-07-15 19:15:00,
2013-07-15 14:20:00,85.3,43.3,29.29,ESE,115,4.9,7.6,23,0.00,,,0.00,VWS V13.01,2013-07-15 19:20:00,
2013-07-15 14:25:00,85.3,45.5,29.29,SSE,155,8.1,10.5,25,0.00,,,0.00,VWS V13.01,2013-07-15 19:25:00,
2013-07-15 14:30:00,85.6,45.8,29.29,SE,139,8.3,10.5,25,0.00,,,0.00,VWS V13.01,2013-07-15 19:30:00,
2013-07-15 14:35:00,86.0,42.8,29.29,SSE,161,8.7,8.7,22,0.00,,,0.00,VWS V13.01,2013-07-15 19:35:00,
2013-07-15 14:40:00,86.2,44.1,29.26,SE,138,8.7,8.7,23,0.00,,,0.00,VWS V13.01,2013-07-15 19:40:00,
2013-07-15 14:45:00,86.7,48.8,29.26,SSE,156,6.3,6.3,27,0.00,,,0.00,VWS V13.01,2013-07-15 19:45:00,
2013-07-15 14:50:00,86.9,45.8,29.26,ESE,119,8.3,8.3,24,0.00,,,0.00,VWS V13.01,2013-07-15 19:50:00,
2013-07-15 14:56:00,86.7,44.5,29.29,SE,126,7.6,7.6,23,0.00,,,0.00,VWS V13.01,2013-07-15 19:56:00,
2013-07-15 15:01:00,86.7,44.5,29.29,SSE,155,6.3,8.7,23,0.00,,,0.00,VWS V13.01,2013-07-15 20:01:00,
2013-07-15 15:06:00,86.5,43.2,29.29,SSE,153,4.0,4.9,22,0.00,,,0.00,VWS V13.01,2013-07-15 20:06:00,
2013-07-15 15:11:00,86.4,41.9,29.29,SE,131,6.3,7.6,21,0.00,,,0.00,VWS V13.01,2013-07-15 20:11:00,
2013-07-15 15:16:00,86.4,43.1,29.29,SSE,160,4.0,4.0,22,0.00,,,0.00,VWS V13.01,2013-07-15 20:16:00,
2013-07-15 15:21:00,86.5,44.4,29.29,ESE,122,5.4,7.6,23,0.00,,,0.00,VWS V13.01,2013-07-15 20:21:00,
2013-07-15 15:26:00,86.7,43.4,29.29,SE,124,5.4,5.4,22,0.00,,,0.00,VWS V13.01,2013-07-15 20:26:00,
2013-07-15 15:32:00,86.9,43.5,29.29,SSE,153,8.7,8.7,22,0.00,,,0.00,VWS V13.01,2013-07-15 20:32:00,
2013-07-15 15:37:00,86.7,43.4,29.29,SSE,156,3.1,7.6,22,0.00,,,0.00,VWS V13.01,2013-07-15 20:37:00,
2013-07-15 15:42:00,86.9,42.3,29.29,SSE,163,9.6,9.6,21,0.00,,,0.00,VWS V13.01,2013-07-15 20:42:00,
2013-07-15 15:47:00,86.7,43.4,29.29,SE,143,5.8,9.6,22,0.00,,,0.00,VWS V13.01,2013-07-15 20:47:00,
2013-07-15 15:52:00,86.7,42.2,29.29,SE,128,9.2,9.2,21,0.00,,,0.00,VWS V13.01,2013-07-15 20:52:00,
2013-07-15 15:57:00,86.9,43.5,29.29,SE,139,5.8,8.3,22,0.00,,,0.00,VWS V13.01,2013-07-15 20:57:00,
2013-07-15 16:02:00,86.7,42.2,29.29,SE,138,8.3,8.3,21,0.00,,,0.00,VWS V13.01,2013-07-15 21:02:00,
2013-07-15 16:07:00,86.7,42.2,29.29,SSE,158,4.0,4.9,21,0.00,,,0.00,VWS V13.01,2013-07-15 21:07:00,
2013-07-15 16:12:00,86.5,42.0,29.29,ESE,119,8.1,8.7,21,0.00,,,0.00,VWS V13.01,2013-07-15 21:12:00,
2013-07-15 16:17:00,86.5,42.0,29.29,SSE,155,8.1,8.1,21,0.00,,,0.00,VWS V13.01,2013-07-15 21:17:00,
2013-07-15 16:22:00,86.2,41.7,29.29,SE,127,8.1,10.5,21,0.00,,,0.00,VWS V13.01,2013-07-15 21:22:00,
2013-07-15 16:27:00,85.3,42.2,29.29,SSE,164,8.3,8.3,22,0.00,,,0.00,VWS V13.01,2013-07-15 21:27:00,
2013-07-15 16:33:00,85.8,42.6,29.29,SE,129,6.3,8.7,22,0.00,,,0.00,VWS V13.01,2013-07-15 21:33:00,
2013-07-15 16:38:00,86.2,42.9,29.29,SSE,153,3.1,6.3,22,0.00,,,0.00,VWS V13.01,2013-07-15 21:38:00,
2013-07-15 16:43:00,86.5,43.2,29.29,SSE,149,5.4,5.4,22,0.00,,,0.00,VWS V13.01,2013-07-15 21:43:00,
2013-07-15 16:48:00,86.4,40.6,29.29,SE,129,7.6,7.6,20,0.00,,,0.00,VWS V13.01,2013-07-15 21:48:00,
2013-07-15 16:53:00,86.5,43.2,29.29,ESE,117,6.3,6.3,22,0.00,,,0.00,VWS V13.01,2013-07-15 21:53:00,
2013-07-15 16:58:00,86.7,40.9,29.29,South,177,5.4,7.6,20,0.00,,,0.00,VWS V13.01,2013-07-15 21:58:00,
2013-07-15 17:03:00,86.9,43.5,29.29,SE,135,4.0,4.0,22,0.00,,,0.00,VWS V13.01,2013-07-15 22:03:00,
2013-07-15 17:08:00,86.7,42.2,29.29,SE,136,6.3,8.3,21,0.00,,,0.00,VWS V13.01,2013-07-15 22:08:00,
2013-07-15 17:14:00,86.4,43.1,29.29,SSE,162,7.6,8.7,22,0.00,,,0.00,VWS V13.01,2013-07-15 22:14:00,
2013-07-15 17:19:00,86.5,44.4,29.29,SE,136,5.8,5.8,23,0.00,,,0.00,VWS V13.01,2013-07-15 22:19:00,
2013-07-15 17:24:00,86.5,42.0,29.32,SE,137,5.8,7.6,21,0.00,,,0.00,VWS V13.01,2013-07-15 22:24:00,
2013-07-15 17:29:00,86.5,43.2,29.32,SSE,155,4.9,5.4,22,0.00,,,0.00,VWS V13.01,2013-07-15 22:29:00,
2013-07-15 17:34:00,86.2,41.7,29.32,SE,143,5.8,5.8,21,0.00,,,0.00,VWS V13.01,2013-07-15 22:34:00,
2013-07-15 17:39:00,86.2,42.9,29.32,SSE,150,8.7,8.7,22,0.00,,,0.00,VWS V13.01,2013-07-15 22:39:00,
2013-07-15 17:44:00,86.0,41.6,29.32,SSE,165,8.1,8.1,21,0.00,,,0.00,VWS V13.01,2013-07-15 22:44:00,
2013-07-15 17:49:00,85.5,41.1,29.32,SE,145,5.4,5.4,21,0.00,,,0.00,VWS V13.01,2013-07-15 22:49:00,
2013-07-15 17:54:00,85.1,40.8,29.32,South,176,4.9,5.4,21,0.00,,,0.00,VWS V13.01,2013-07-15 22:54:00,
2013-07-15 17:59:00,85.5,41.1,29.32,SSE,165,5.4,6.7,21,0.00,,,0.00,VWS V13.01,2013-07-15 22:59:00,
2013-07-15 18:05:00,85.5,41.1,29.32,South,185,4.9,7.6,21,0.00,,,0.00,VWS V13.01,2013-07-15 23:05:00,
2013-07-15 18:10:00,85.5,43.5,29.32,SE,140,5.8,5.8,23,0.00,,,0.00,VWS V13.01,2013-07-15 23:10:00,
2013-07-15 18:15:00,85.5,42.3,29.32,SSE,162,6.3,6.3,22,0.00,,,0.00,VWS V13.01,2013-07-15 23:15:00,
2013-07-15 18:20:00,85.6,42.5,29.32,SSE,160,4.0,4.5,22,0.00,,,0.00,VWS V13.01,2013-07-15 23:20:00,
2013-07-15 18:25:00,85.8,42.6,29.32,SE,141,4.0,4.5,22,0.00,,,0.00,VWS V13.01,2013-07-15 23:25:00,
2013-07-15 18:30:00,86.0,43.9,29.32,SSE,154,2.7,4.9,23,0.00,,,0.00,VWS V13.01,2013-07-15 23:30:00,
2013-07-15 18:36:00,85.8,43.8,29.32,SSE,151,4.0,5.4,23,0.00,,,0.00,VWS V13.01,2013-07-15 23:36:00,
2013-07-15 18:41:00,85.5,44.6,29.32,SSE,151,4.0,4.0,24,0.00,,,0.00,VWS V13.01,2013-07-15 23:41:00,
2013-07-15 18:46:00,85.3,44.4,29.32,SE,130,4.0,4.0,24,0.00,,,0.00,VWS V13.01,2013-07-15 23:46:00,
2013-07-15 18:51:00,85.3,45.5,29.32,SSE,156,2.7,4.0,25,0.00,,,0.00,VWS V13.01,2013-07-15 23:51:00,
2013-07-15 18:56:00,85.1,45.4,29.32,SSE,164,3.1,3.6,25,0.00,,,0.00,VWS V13.01,2013-07-15 23:56:00,
2013-07-15 19:02:00,84.9,46.2,29.32,SSE,151,3.6,3.6,26,0.00,,,0.00,VWS V13.01,2013-07-16 00:02:00,
2013-07-15 19:07:00,84.6,46.9,29.32,SE,141,3.6,4.0,27,0.00,,,0.00,VWS V13.01,2013-07-16 00:07:00,
2013-07-15 19:12:00,84.4,46.8,29.32,SSE,147,4.5,4.5,27,0.00,,,0.00,VWS V13.01,2013-07-16 00:12:00,
2013-07-15 19:17:00,83.8,48.2,29.32,SE,136,0.0,0.0,29,0.00,,,0.00,VWS V13.01,2013-07-16 00:17:00,
2013-07-15 19:22:00,83.3,47.8,29.32,SE,134,0.0,0.0,29,0.00,,,0.00,VWS V13.01,2013-07-16 00:22:00,
2013-07-15 19:27:00,82.9,47.5,29.32,SSE,147,0.0,0.0,29,0.00,,,0.00,VWS V13.01,2013-07-16 00:27:00,
2013-07-15 19:33:00,82.2,47.7,29.32,SSE,163,0.0,0.0,30,0.00,,,0.00,VWS V13.01,2013-07-16 00:33:00,
2013-07-15 19:39:00,82.0,47.6,29.32,SE,129,0.0,0.0,30,0.00,,,0.00,VWS V13.01,2013-07-16 00:39:00,
2013-07-15 19:44:00,82.0,47.6,29.32,SE,127,0.0,0.0,30,0.00,,,0.00,VWS V13.01,2013-07-16 00:44:00,
2013-07-15 19:49:00,82.0,47.6,29.32,SE,133,3.1,3.6,30,0.00,,,0.00,VWS V13.01,2013-07-16 00:49:00,
2013-07-15 19:54:00,81.9,47.4,29.29,SE,136,2.2,2.2,30,0.00,,,0.00,VWS V13.01,2013-07-16 00:54:00,
2013-07-15 19:59:00,81.7,48.1,29.29,SE,131,2.7,2.7,31,0.00,,,0.00,VWS V13.01,2013-07-16 00:59:00,
2013-07-15 20:04:00,81.5,48.0,29.29,SE,141,0.0,0.0,31,0.00,,,0.00,VWS V13.01,2013-07-16 01:04:00,
2013-07-15 20:09:00,81.3,47.8,29.29,SE,143,0.0,0.0,31,0.00,,,0.00,VWS V13.01,2013-07-16 01:09:00,
2013-07-15 20:14:00,81.0,48.4,29.29,SE,143,0.0,0.0,32,0.00,,,0.00,VWS V13.01,2013-07-16 01:14:00,
2013-07-15 20:20:00,80.6,48.0,29.29,SE,139,0.0,0.0,32,0.00,,,0.00,VWS V13.01,2013-07-16 01:20:00,
2013-07-15 20:25:00,80.1,48.4,29.29,ESE,117,0.0,0.0,33,0.00,,,0.00,VWS V13.01,2013-07-16 01:25:00,
2013-07-15 20:30:00,79.7,48.1,29.29,ESE,117,0.0,0.0,33,0.00,,,0.00,VWS V13.01,2013-07-16 01:30:00,
2013-07-15 20:35:00,79.5,48.7,29.29,ESE,116,0.0,0.0,34,0.00,,,0.00,VWS V13.01,2013-07-16 01:35:00,
2013-07-15 20:40:00,79.2,49.2,29.29,ESE,106,0.0,0.0,35,0.00,,,0.00,VWS V13.01,2013-07-16 01:40:00,
2013-07-15 20:45:00,79.0,49.0,29.29,ESE,106,0.0,0.0,35,0.00,,,0.00,VWS V13.01,2013-07-16 01:45:00,
2013-07-15 20:50:00,78.6,49.5,29.29,ESE,106,0.0,0.0,36,0.00,,,0.00,VWS V13.01,2013-07-16 01:50:00,
2013-07-15 20:56:00,78.4,49.3,29.26,East,99,0.0,0.0,36,0.00,,,0.00,VWS V13.01,2013-07-16 01:56:00,
2013-07-15 21:01:00,78.4,49.3,29.26,ESE,110,0.0,0.0,36,0.00,,,0.00,VWS V13.01,2013-07-16 02:01:00,
2013-07-15 21:06:00,78.4,49.3,29.26,ESE,103,0.0,0.0,36,0.00,,,0.00,VWS V13.01,2013-07-16 02:06:00,
2013-07-15 21:11:00,78.3,49.1,29.26,ESE,103,0.0,0.0,36,0.00,,,0.00,VWS V13.01,2013-07-16 02:11:00,
2013-07-15 21:16:00,77.7,49.4,29.26,ESE,103,0.0,0.0,37,0.00,,,0.00,VWS V13.01,2013-07-16 02:16:00,
2013-07-15 21:21:00,77.2,48.9,29.26,ESE,102,0.0,0.0,37,0.00,,,0.00,VWS V13.01,2013-07-16 02:21:00,
2013-07-15 21:26:00,76.8,50.0,29.26,ESE,102,0.0,0.0,39,0.00,,,0.00,VWS V13.01,2013-07-16 02:26:00,
2013-07-15 21:32:00,76.5,50.4,29.26,ESE,102,0.0,0.0,40,0.00,,,0.00,VWS V13.01,2013-07-16 02:32:00,
2013-07-15 21:37:00,76.6,51.8,29.26,ESE,106,0.0,0.0,42,0.00,,,0.00,VWS V13.01,2013-07-16 02:37:00,
2013-07-15 21:42:00,77.0,52.2,29.26,ESE,105,0.0,0.0,42,0.00,,,0.00,VWS V13.01,2013-07-16 02:42:00,
2013-07-15 21:48:00,77.0,52.2,29.26,ESE,105,0.0,0.0,42,0.00,,,0.00,VWS V13.01,2013-07-16 02:48:00,
2013-07-15 21:54:00,77.2,53.0,29.26,ESE,122,0.0,0.0,43,0.00,,,0.00,VWS V13.01,2013-07-16 02:54:00,
2013-07-15 21:59:00,77.2,53.0,29.26,East,99,0.0,0.0,43,0.00,,,0.00,VWS V13.01,2013-07-16 02:59:00,
2013-07-15 22:04:00,77.0,53.4,29.26,ESE,113,0.0,0.0,44,0.00,,,0.00,VWS V13.01,2013-07-16 03:04:00,
2013-07-15 22:09:00,77.0,52.8,29.26,ESE,118,0.0,0.0,43,0.00,,,0.00,VWS V13.01,2013-07-16 03:09:00,
2013-07-15 22:14:00,77.0,52.8,29.26,ESE,110,0.0,0.0,43,0.00,,,0.00,VWS V13.01,2013-07-16 03:14:00,
2013-07-15 22:19:00,77.0,52.8,29.26,SE,130,0.0,0.0,43,0.00,,,0.00,VWS V13.01,2013-07-16 03:19:00,
2013-07-15 22:24:00,76.8,52.7,29.26,ESE,122,0.0,0.0,43,0.00,,,0.00,VWS V13.01,2013-07-16 03:24:00,
2013-07-15 22:29:00,76.8,52.7,29.26,East,100,0.0,0.0,43,0.00,,,0.00,VWS V13.01,2013-07-16 03:29:00,
2013-07-15 22:34:00,76.8,52.0,29.26,ESE,113,0.0,0.0,42,0.00,,,0.00,VWS V13.01,2013-07-16 03:34:00,
2013-07-15 22:39:00,76.8,52.0,29.26,East,94,0.0,0.0,42,0.00,,,0.00,VWS V13.01,2013-07-16 03:39:00,
2013-07-15 22:44:00,76.8,52.0,29.26,ESE,114,2.7,3.6,42,0.00,,,0.00,VWS V13.01,2013-07-16 03:44:00,
2013-07-15 22:49:00,76.8,52.0,29.26,ESE,119,0.0,0.0,42,0.00,,,0.00,VWS V13.01,2013-07-16 03:49:00,
2013-07-15 22:54:00,76.8,51.4,29.26,ESE,106,0.0,0.0,41,0.00,,,0.00,VWS V13.01,2013-07-16 03:54:00,
2013-07-15 23:00:00,76.8,51.4,29.26,ESE,111,0.0,0.0,41,0.00,,,0.00,VWS V13.01,2013-07-16 04:00:00,
2013-07-15 23:01:00,76.8,51.4,29.26,ESE,119,0.0,0.0,41,0.00,,,0.00,VWS V13.01,2013-07-16 04:01:00,
2013-07-15 23:06:00,76.8,51.4,29.26,East,101,0.0,0.0,41,0.00,,,0.00,VWS V13.01,2013-07-16 04:06:00,
2013-07-15 23:11:00,76.6,51.2,29.23,ESE,109,0.0,0.0,41,0.00,,,0.00,VWS V13.01,2013-07-16 04:11:00,
2013-07-15 23:16:00,76.5,51.7,29.23,ESE,122,0.0,0.0,42,0.00,,,0.00,VWS V13.01,2013-07-16 04:16:00,
2013-07-15 23:21:00,76.5,51.7,29.23,ESE,110,0.0,0.0,42,0.00,,,0.00,VWS V13.01,2013-07-16 04:21:00,
2013-07-15 23:26:00,76.5,52.3,29.23,ESE,114,0.0,0.0,43,0.00,,,0.00,VWS V13.01,2013-07-16 04:26:00,
2013-07-15 23:31:00,76.5,52.3,29.23,ESE,105,0.0,0.0,43,0.00,,,0.00,VWS V13.01,2013-07-16 04:31:00,
2013-07-15 23:36:00,76.5,52.3,29.23,ESE,114,0.0,0.0,43,0.00,,,0.00,VWS V13.01,2013-07-16 04:36:00,
2013-07-15 23:42:00,76.6,52.5,29.23,East,101,0.0,3.1,43,0.00,,,0.00,VWS V13.01,2013-07-16 04:42:00,
2013-07-15 23:47:00,76.6,53.1,29.23,SE,128,2.7,3.6,44,0.00,,,0.00,VWS V13.01,2013-07-16 04:47:00,
2013-07-15 23:52:00,76.5,53.0,29.23,ESE,111,3.1,3.1,44,0.00,,,0.00,VWS V13.01,2013-07-16 04:52:00,
2013-07-15 23:57:00,76.5,53.0,29.23,ESE,112,2.2,3.6,44,0.00,,,0.00,VWS V13.01,2013-07-16 04:57:00,